User: anonymous   Login
Location: Unspecified
(0.0000°N, 0.0000°E)
Time: 02:05:34
(UTC+00:00)
Language:

DANDE - Orbit

View from above orbital plane
View from above orbital plane
View from above satellite
View from above satellite

Ground track
Ground track

The orbit data is extracted from the following two-line orbital elements,

1 39267U 13055C   18055.26041626 +.00002175 +00000-0 +65272-4 0  9998
2 39267 081.0131 128.5783 0705902 266.1235 085.9024 14.18587266224414
Epoch (UTC): 24 February 2018 06:14:59
Eccentricity: 0.0705902
inclination: 81.0131°
perigee height: 321 km
apogee height: 1339 km
right ascension of ascending node: 128.5783°
argument of perigee: 266.1235°
revolutions per day: 14.18587266
mean anomaly at epoch: 85.9024°
orbit number at epoch: 22441

The dashed part of the orbit path shows where the satellite is in the earth's shadow,  

DLR